Starlink 11419

operational
NORAD ID: 62883 Int'l Des: 2025-024 Owner: SPXS Country: US Constellation: starlink
LEOCIRCULAR

About Starlink 11419

Description loading...

Live Position

Loading 3D Globe...

Upcoming Passes

Altitude History

Altitude vs Time

uPlot chart will show altitude changes over time

Two-Line Element Set

1 62883U 25024E 25259.07117693 .00247723 00000-0 18647-2 0 9990
2 62883 42.9992 153.9994 0003219 251.0311 109.0208 15.70995504 36006
Epoch: Sep 16, 2025 • Age: 21 hours

Current Status

Altitude 365.3 km
Velocity 7.69 km/s
Sub-Earth Point -41.43°S, 63.5°E
Launch Date Feb 4, 2025
Age 0.6 years
Type internet

Technical Details

Classification Payload
Mass 960.00 kg
Dry Mass 910.00 kg
Total Mass 960.00 kg
Length 0.30 m
Diameter 4.10 m
Span 29.00 m
Shape Box + pan
Manufacturer SPXS
Bus Type Starlink V2MD
Phase Status In Orbit
Owner/State SPXS/US

Large Constellations

Loading constellations...